Printer-friendly version

IAU Minor Planet Center

Minor Planet Center

MPEC 2005-K41 : 2005 KL8

The following Minor Planet Electronic Circular may be linked-to from your own Web pages, but must not otherwise be redistributed electronically.


Read MPEC 2005-K40 Read MPEC 2005-K42


M.P.E.C. 2005-K41                                Issued 2005 May 25, 16:07 UT

     The Minor Planet Electronic Circulars contain information on unusual
         minor planets and routine data on comets.  They are published
   on behalf of Commission 20 of the International Astronomical Union by the
          Minor Planet Center, Smithsonian Astrophysical Observatory,
                          Cambridge, MA 02138, U.S.A.

                  Supported in part by the Brinson Foundation
             Prepared using the Tamkin Foundation Computer Network

                              MPC@CFA.HARVARD.EDU
          URL http://cfa-www.harvard.edu/iau/mpc.html  ISSN 1523-6714

                                   2005 KL8

Observations:
     K05K08L* C2005 05 19.70193 20 54 29.24 -24 27 26.9          19.5 R EK041E12
     K05K08L  C2005 05 19.70237 20 54 29.29 -24 27 26.3          18.9 R EK041E12
     K05K08L  C2005 05 19.70802 20 54 30.08 -24 27 31.4          19.0 R EK041E12
     K05K08L  C2005 05 19.70844 20 54 30.13 -24 27 30.8          19.0 R EK041E12
     K05K08L  C2005 05 19.71405 20 54 30.96 -24 27 35.3          18.8 R EK041E12
     K05K08L  C2005 05 19.71448 20 54 31.04 -24 27 35.9          19.0 R EK041E12
     K05K08L  C2005 05 19.72009 20 54 31.83 -24 27 40.3          19.9 R EK041E12
     K05K08L  C2005 05 19.72052 20 54 31.92 -24 27 41.1          18.5 R EK041E12
     K05K08L  C2005 05 20.81916 20 57 16.62 -24 41 56.3          18.8 R EK041E12
     K05K08L  C2005 05 20.82049 20 57 16.77 -24 41 56.5          19.1 R EK041E12
     K05K08L  C2005 05 20.82186 20 57 17.00 -24 41 58.1          19.0 R EK041E12
     K05K08L  C2005 05 21.80019 20 59 45.14 -24 54 58.2          18.7 R EK041E12
     K05K08L  C2005 05 21.80082 20 59 45.19 -24 54 58.4          19.1 R EK041E12
     K05K08L  C2005 05 21.80147 20 59 45.29 -24 54 58.6          19.2 R EK041E12
     K05K08L  C2005 05 21.80211 20 59 45.44 -24 54 59.9          19.1 R EK041E12
     K05K08L  C2005 05 24.54878 21 06 47.35 -25 33 03.0          19.1 R EK041474
     K05K08L  C2005 05 24.55087 21 06 47.64 -25 33 04.6          18.7 R EK041474
     K05K08L  C2005 05 24.55295 21 06 47.98 -25 33 06.8          18.9 R EK041474
     K05K08L  C2005 05 24.55527 21 06 48.40 -25 33 08.1          19.3 R EK041474

Observer details:
474 Mount John Observatory, Lake Tekapo.  Observers A. C. Gilmore,
    P. M. Kilmartin.  Measurer P. M. Kilmartin.  1.0-m f/7.7 reflector + CCD.
E12 Siding Spring Survey.  Observer R. H. McNaught.  Measurers E. C. Beshore,
    C. M. Casey, E. J. Christensen, G. J. Garradd, A. D. Grauer, R. E. Hill,
    S. M. Larson, R. H. McNaught.  0.5-m Uppsala Schmidt + CCD.

Orbital elements:
2005 KL8
Epoch 2005 May 10.0 TT = JDT 2453500.5                  MPC
M 343.17206              (2000.0)            P               Q
n   0.16622276     Peri.  249.22151     +0.82748089     +0.40167979
a   3.2759887      Node    85.29645     -0.24264154     +0.88593595
e   0.5653207      Incl.   23.18263     -0.50636002     +0.23188539
P   5.93           H   16.7           G   0.15
From 19 observations 2005 May 19-24.

Ephemeris:
2005 KL8                 a,e,i = 3.28, 0.57, 23                  q = 1.4240
Date    TT    R. A. (2000) Decl.     Delta      r     Elong.  Phase     V
2005 05 20    20 55.22   -24 31.3    1.089    1.716   109.5    33.8    19.5
2005 05 30    21 21.18   -26 56.1    0.970    1.663   113.8    33.9    19.1
2005 06 09    21 49.37   -29 55.0    0.867    1.613   117.7    33.9    18.8
2005 06 19    22 20.21   -33 27.3    0.781    1.567   120.8    33.8    18.5
2005 06 29    22 53.97   -37 24.3    0.714    1.526   122.8    34.0    18.3
2005 07 09    23 30.32   -41 29.5    0.666    1.492   123.5    34.6    18.1
2005 07 19    00 08.04   -45 19.5    0.636    1.463   123.0    35.6    18.0
2005 07 29    00 44.93   -48 33.8    0.621    1.442   121.8    36.8    18.0
2005 08 08    01 18.00   -51 01.8    0.618    1.429   120.3    37.8    18.0
2005 08 18    01 44.42   -52 41.5    0.623    1.424   119.2    38.4    18.0
2005 08 28    02 02.38   -53 36.1    0.634    1.427   118.7    38.4    18.0
2005 09 07    02 11.15   -53 46.7    0.648    1.438   119.1    37.8    18.1
2005 09 17    02 11.41   -53 07.5    0.665    1.457   120.2    36.6    18.1
2005 09 27    02 05.18   -51 30.5    0.685    1.484   122.0    35.0    18.2
2005 10 07    01 55.23   -48 48.3    0.712    1.517   124.0    33.1    18.3
2005 10 17    01 44.70   -45 00.0    0.748    1.556   125.7    31.3    18.4
2005 10 27    01 35.97   -40 16.2    0.795    1.601   126.6    29.9    18.5
2005 11 06    01 30.31   -34 54.6    0.858    1.650   126.2    29.0    18.7
2005 11 16    01 28.15   -29 16.1    0.936    1.703   124.4    28.6    19.0
2005 11 26    01 29.26   -23 39.5    1.032    1.759   121.2    28.7    19.3
2005 12 06    01 33.21   -18 17.7    1.144    1.817   116.9    28.9    19.6
2005 12 16    01 39.55   -13 18.2    1.273    1.878   112.0    29.1    19.9
2005 12 26    01 47.81   -08 44.1    1.416    1.940   106.5    29.1    20.2
2006 01 05    01 57.65   -04 35.2    1.571    2.003   100.8    28.8    20.5
2006 01 15    02 08.78   -00 50.3    1.735    2.068    95.0    28.3    20.7
2006 01 25    02 20.94   +02 32.6    1.908    2.132    89.0    27.5    21.0
2006 02 04    02 33.98   +05 35.9    2.086    2.197    83.1    26.4    21.2
2006 02 14    02 47.74   +08 21.4    2.268    2.263    77.1    25.2    21.4
2006 02 24    03 02.08   +10 50.7    2.450    2.328    71.2    23.7    21.6
2006 03 06    03 16.93   +13 05.5    2.632    2.392    65.2    22.1    21.8

Timothy B. Spahr             (C) Copyright 2005 MPC           M.P.E.C. 2005-K41

Read MPEC 2005-K40 Read MPEC 2005-K42


Our Web policy. Index to the CBAT/MPC/ICQ pages.


Valid HTML 4.01!